Location: Unspecified
(0.0000°N, 0.0000°E)
Time: 09:34:18
(UTC+00:00)

Courier 1B Rocket - Pass Details

Date: 13 December 2018
Orbit: 920 x 1202 km, 28.3° (Epoch: 17 January)

Event Time Altitude Azimuth Distance (km) Brightness Sun altitude
Rises 15:53:11 0° 319° (NW) 4,043 8.4 27.6°
Reaches altitude 10° 15:56:26 10° 330° (NNW) 3,104 7.8 26.9°
Maximum altitude 16:03:00 29° 27° (NNE) 2,024 6.5 25.4°
Drops below altitude 10° 16:09:33 10° 85° (E) 3,112 7.2 23.9°
Sets 16:12:48 0° 95° (E) 4,055 7.7 23.2°
